Temperature
18 18 18 18 18 18 18 18 18 18 18 19 19 19 19 19 18 18 18 18 18 18 18 18 18 18 18 19 19 19 19 18 18 18 18 18 18 18 18 18 18 18 18
18 18 18 18 18 18 18 18 18 18 18 18 18 18 18 18 18 18 18 18 18 18 18 18 18 18 18 18 18 18 18 18 18 18 18 18 18 18 18 18 18 18 18
19 18 18 18 18 18 18 18 18 18 18 18 18 18 18 18 18 18 18 18 18 18 18 18 18 18 18 18 18 18 18 18 18 18 18 18 18 18 18 18 18 18 18
18 18 18 18 18 18 18 18 18 18 18 18 18 18 18 18 17 17 17 17 17 17 17 17 18 18 18 18 18 18 18 18 18 18 18 18 18 18 18 18 18 18 18
18 18 18 18 18 18 18 18 18 18 18 17 17 17 17 17 17 17 17 17 17 17 17 17 17 17 18 18 18 18 18 18 18 18 18 18 18 18 18 18 18 18 18
18 18 18 18 18 18 18 18 18 17 17 17 17 17 17 17 17 17 17 17 17 17 17 17 17 17 17 17 18 18 18 18 18 18 18 18 18 18 18 18 18 18 18
18 18 18 18 18 18 17 17 17 17 17 17 16 16 16 16 16 16 16 16 16 16 16 16 17 17 17 17 17 17 18 18 18 18 18 17 17 18 18 18 18 18 18
19 18 18 18 18 18 17 17 17 17 16 16 16 16 16 16 16 16 16 16 16 16 16 16 16 17 17 17 17 17 17 17 17 18 17 17 17 18 18 18 18 18 18
19 19 18 18 18 17 17 17 17 16 16 16 16 16 16 16 16 16 15 15 15 15 16 16 16 16 16 17 17 17 17 17 17 17 17 17 17 18 18 18 18 18 18
19 19 18 18 18 18 17 17 17 16 16 16 16 16 16 16 16 16 15 15 15 15 15 15 16 16 16 16 16 17 17 17 17 17 17 17 17 17 18 18 18 18 18
19 19 19 18 18 18 17 17 17 17 16 16 16 16 16 16 16 16 15 15 15 15 15 15 15 16 16 16 16 16 16 17 17 17 17 17 17 17 17 18 18 18 18
19 19 19 18 18 18 17 17 17 17 16 16 16 16 16 16 16 15 15 15 15 15 15 15 15 15 16 16 16 16 16 16 17 17 17 17 17 17 17 17 18 18 18
19 19 19 19 18 18 18 17 17 17 17 16 16 16 16 16 16 15 15 15 15 15 15 15 15 15 16 16 16 16 16 16 17 17 17 17 17 17 17 17 17 18 18
19 19 19 19 18 18 18 18 17 17 17 16 16 16 16 16 15 15 15 15 15 15 15 15 15 15 15 16 16 16 16 16 16 17 17 17 17 17 17 17 17 17 17
20 20 19 19 19 18 18 18 17 17 17 16 16 16 16 15 15 15 15 15 15 15 15 15 15 15 15 16 16 16 16 16 16 16 16 16 17 17 17 17 17 17 17
20 20 19 19 19 18 18 18 17 17 16 16 16 16 16 15 15 15 15 15 15 15 15 15 15 15 15 15 15 16 16 16 16 16 16 16 16 17 17 17 17 17 17
20 20 20 19 19 19 18 18 17 17 16 16 16 16 15 15 15 15 15 15 14 14 14 15 15 15 15 15 15 16 16 16 16 16 16 16 16 16 16 17 17 17 17
21 20 20 19 19 19 18 18 17 17 16 16 16 15 15 15 15 15 15 14 14 14 14 14 15 15 15 15 15 15 16 16 16 16 16 16 16 16 16 16 17 17 17
21 20 20 19 19 19 18 18 17 17 16 16 15 15 15 15 15 14 14 14 14 14 14 14 14 14 15 15 15 15 15 16 16 16 16 16 16 16 16 16 16 17 17
21 20 20 20 19 19 18 18 17 17 16 16 15 15 15 15 14 14 14 14 14 14 14 14 14 14 14 15 15 15 15 15 16 16 16 16 16 16 16 16 16 16 16
21 20 20 20 19 19 18 18 17 17 16 16 15 15 15 15 14 14 14 14 14 14 14 14 14 14 15 15 15 15 15 15 15 15 16 16 16 16 16 16 16 16 16
21 21 20 20 19 19 18 18 17 17 16 16 15 15 15 15 15 14 14 14 14 14 14 14 14 14 14 14 15 15 15 15 15 15 15 15 15 16 16 16 16 16 16
21 20 20 20 19 19 19 18 17 17 16 16 16 15 15 15 15 14 14 14 14 14 14 14 14 14 14 14 14 14 14 14 15 15 15 15 15 15 15 16 16 16 16
21 20 20 20 19 19 19 18 18 17 17 16 16 16 15 15 15 15 14 14 14 14 14 14 14 14 14 14 14 14 14 14 14 14 15 15 15 15 15 15 16 16 16
21 20 20 20 19 19 18 18 18 17 17 17 16 16 16 15 15 15 15 14 14 14 14 14 14 14 14 14 14 14 14 14 14 14 14 15 15 15 15 15 15 15 16
20 20 20 19 19 19 18 18 18 17 17 17 16 16 16 16 15 15 15 15 14 14 14 14 14 14 14 14 14 14 14 14 14 14 14 14 14 15 15 15 15 15 15
Wind_Speed
3 6 10 11 10 10 10 11 11 11 11 11 11 11 11 10 10 10 10 10 9 9 9 8 8 8 8 8 8 7 7 7 6 6 6 5 5 6 6 6 6 5 7
7 8 11 11 11 11 10 10 10 10 10 10 10 10 10 9 9 9 9 8 8 8 7 7 7 7 7 6 6 6 6 6 6 6 5 4 4 5 5 6 6 5 7
8 9 11 11 11 11 10 10 10 10 9 9 9 9 9 8 8 8 8 7 7 7 6 6 6 6 5 5 5 5 6 6 7 6 4 2 2 4 5 6 6 7 7
10 10 11 12 11 11 11 10 10 9 9 9 9 9 9 8 8 7 7 7 7 6 6 5 5 4 4 4 4 5 5 6 7 7 3 1 1 4 5 5 6 6 7
9 10 12 12 12 11 11 10 9 9 9 9 8 8 8 8 7 7 7 6 6 6 5 5 4 3 3 3 4 5 5 6 7 7 3 1 2 4 5 5 5 6 6
8 10 13 13 12 11 10 9 9 9 8 8 7 7 6 6 6 6 5 5 5 5 5 4 3 3 3 4 4 4 5 6 6 5 2 1 2 4 5 5 5 5 6
8 10 12 13 12 11 10 9 9 8 7 6 5 5 4 4 4 3 3 4 4 4 4 4 4 3 3 3 4 4 5 6 5 4 2 2 3 4 5 5 5 5 6
10 9 12 13 12 11 11 10 8 7 6 4 3 2 2 2 1 1 1 2 2 3 4 4 4 4 4 5 5 5 6 6 5 4 3 3 5 5 5 5 5 5 6
9 9 9 11 11 11 11 10 8 6 4 2 1 1 2 2 2 3 3 3 3 4 4 4 5 5 5 6 6 7 7 7 5 4 4 3 5 6 5 6 6 5 5
8 7 7 8 9 9 9 9 7 6 4 3 2 3 3 4 4 5 6 6 5 4 5 5 6 7 7 7 7 7 7 7 5 4 3 4 6 6 6 6 6 6 5
7 6 6 6 7 7 7 7 6 5 3 2 3 5 5 4 5 4 6 6 6 5 6 7 8 8 8 8 8 9 7 5 5 4 4 6 7 7 6 6 6 6 6
8 7 6 6 6 7 7 5 5 3 2 3 4 4 4 4 4 3 3 4 5 6 7 8 8 9 8 7 7 7 4 5 5 5 6 8 8 7 7 6 6 6 6
7 7 6 7 7 6 4 3 3 1 1 1 2 2 2 4 4 4 3 4 6 6 5 7 8 7 6 5 5 4 3 4 4 4 6 8 8 7 7 7 7 6 7
6 7 7 7 6 5 4 3 3 2 2 1 2 3 4 3 3 3 3 3 3 4 4 4 4 6 6 6 4 2 2 1 1 2 5 8 8 7 6 6 7 7 7
7 6 6 7 6 4 3 2 3 3 2 2 5 6 6 3 3 3 3 4 4 4 3 3 4 4 4 4 4 3 2 1 0 3 4 7 8 7 6 6 6 7 7
7 6 5 6 6 6 4 4 3 4 4 5 7 8 8 6 4 3 3 3 4 5 4 3 3 3 3 3 4 4 2 2 1 1 3 4 6 6 5 5 6 7 7
8 7 6 6 6 6 6 5 4 5 6 5 6 8 9 8 6 4 3 4 4 6 6 4 4 4 4 4 4 4 2 2 1 1 2 3 3 4 5 5 5 6 7
8 7 6 7 7 7 6 5 4 5 6 5 6 7 8 8 7 5 3 3 4 5 4 3 3 4 4 4 3 4 3 2 2 0 1 2 2 2 4 5 5 5 6
9 8 7 7 7 7 6 5 5 5 4 4 5 5 6 7 7 5 3 3 5 4 4 4 3 2 3 4 3 3 3 2 2 1 1 1 2 2 2 4 5 5 5
8 8 8 7 6 6 5 5 4 4 3 3 3 3 5 5 6 5 3 4 4 4 4 4 4 3 2 3 3 4 4 3 3 2 1 1 1 2 3 2 3 4 5
7 8 8 7 6 5 4 3 3 2 1 1 1 2 3 4 5 5 3 4 4 3 4 4 3 4 4 3 3 4 4 4 4 3 3 2 1 1 1 2 2 2 2
7 7 7 7 6 5 4 3 2 2 1 0 1 2 1 2 3 3 3 3 3 3 5 5 4 3 3 4 2 2 4 5 4 5 4 2 2 2 1 1 2 2 2
7 7 8 7 6 5 5 4 4 4 3 3 2 2 2 1 2 3 3 2 3 3 3 3 3 3 3 4 3 2 2 1 3 4 4 3 3 2 1 1 1 2 3
6 5 6 6 6 5 5 5 4 3 1 1 1 1 2 2 1 2 2 2 2 2 2 3 2 2 2 3 3 2 1 2 1 2 4 3 3 2 2 1 0 1 2
5 5 5 6 5 5 5 6 5 3 1 1 0 1 2 2 2 1 1 1 2 2 2 2 3 2 1 1 1 2 2 2 2 1 2 4 3 3 2 1 0 0 1
5 5 5 6 4 4 4 4 4 3 2 0 1 1 1 2 2 2 1 0 1 1 1 1 2 2 1 1 1 1 1 1 1 1 0 2 2 3 2 2 1 0 1
Wind_Direction
123 127 119 112 109 104 100 97 93 91 89 86 85 82 80 78 76 73 73 73 72 71 68 66 64 62 62 60 56 52 49 47 46 47 49 53 61 67 67 64 62 58 57
137 126 119 114 111 108 102 98 94 90 88 84 82 80 78 76 74 72 70 68 66 66 65 62 61 58 58 56 50 44 39 33 26 28 30 37 66 76 68 66 68 70 61
124 119 114 112 109 106 102 98 93 89 87 84 82 80 76 73 71 70 66 61 58 56 55 56 57 53 50 46 39 33 25 18 17 17 21 48 90 88 78 72 71 71 67
124 119 115 111 107 104 100 96 93 90 86 83 80 77 74 70 67 64 60 53 47 45 44 44 47 45 40 33 24 17 11 10 11 12 17 44 105 104 93 80 73 72 69
119 119 118 115 111 107 103 100 96 93 89 85 81 76 72 69 65 60 55 49 42 37 33 32 33 25 18 12 5 0 357 360 4 8 11 100 124 120 103 90 82 77 72
122 125 125 122 119 115 112 107 102 97 93 88 82 77 72 67 62 58 52 46 36 27 20 18 12 358 356 349 344 341 342 346 355 360 9 179 163 135 113 101 92 84 77
134 135 134 132 129 125 120 115 109 105 100 94 86 81 73 64 56 48 43 37 27 15 6 359 350 337 329 322 318 317 324 330 349 359 341 222 186 148 124 111 101 95 86
145 147 145 144 142 138 134 131 127 124 120 113 97 75 53 37 17 2 15 4 359 355 349 343 333 320 309 301 295 294 300 311 336 354 320 243 197 158 135 120 112 107 96
152 153 155 156 154 152 149 147 146 146 149 157 169 333 334 332 303 270 268 284 308 332 333 326 318 311 306 300 293 287 290 299 314 314 298 233 198 166 145 133 125 120 107
157 162 165 167 167 167 165 165 166 169 182 213 260 286 303 312 305 278 263 270 288 312 318 317 312 307 303 298 293 288 286 292 299 301 276 234 203 177 159 149 140 132 123
165 176 174 177 185 186 185 191 191 196 217 258 297 309 318 321 321 304 273 272 286 302 311 314 314 314 310 303 296 292 288 276 284 280 253 232 206 184 170 161 152 144 139
176 186 186 184 191 198 202 196 206 227 266 295 301 317 330 332 336 331 299 301 312 320 320 331 333 331 326 315 307 304 285 265 264 258 237 217 199 185 175 166 158 151 147
176 177 177 180 183 190 201 179 186 207 273 309 314 328 16 25 20 23 11 354 348 348 342 345 350 346 334 319 309 308 288 271 254 245 216 202 190 182 176 170 162 157 153
151 159 163 163 160 166 154 151 150 142 132 105 41 34 48 36 21 19 23 8 1 355 355 351 348 347 342 333 325 328 330 282 227 215 202 193 186 183 175 174 167 162 158
140 139 144 147 141 133 121 124 115 127 124 75 47 43 55 55 31 25 27 21 8 9 8 359 0 354 350 347 353 9 2 342 209 194 208 198 191 188 180 178 174 167 163
147 143 139 129 127 116 106 100 103 107 96 72 58 56 61 61 52 38 25 16 10 7 8 10 7 358 344 346 356 4 358 356 302 201 202 207 203 193 186 182 181 175 171
159 148 141 131 119 110 105 100 103 105 95 77 65 62 60 58 54 46 30 14 358 6 14 14 10 8 3 1 356 350 355 356 345 261 204 199 205 205 197 188 184 183 178
153 148 143 130 118 113 110 103 99 97 93 85 77 64 58 53 53 48 31 8 1 16 18 12 11 6 358 355 347 342 349 344 360 325 172 177 187 199 205 199 192 190 190
156 148 132 124 124 119 108 96 91 90 88 91 79 64 52 48 49 51 34 9 18 25 16 8 14 8 355 349 340 351 355 354 348 22 71 142 182 190 197 205 201 198 198
150 138 129 125 123 113 95 81 66 62 62 77 73 60 51 45 48 45 32 13 22 29 15 8 0 359 352 345 0 7 359 356 1 15 23 46 106 174 183 191 198 208 198
138 135 136 133 133 121 105 98 91 82 66 45 343 52 56 50 52 49 32 18 22 28 14 8 6 2 355 358 26 6 360 7 22 16 14 25 36 74 145 167 180 178 189
149 149 143 144 141 136 132 137 142 138 144 210 328 11 28 46 46 56 47 33 24 27 19 17 26 13 357 14 46 44 10 357 359 10 13 26 24 25 39 137 152 181 187
150 158 157 157 146 138 126 105 78 57 40 23 9 345 325 0 28 42 44 45 33 42 19 7 27 39 10 359 37 92 84 346 329 343 1 6 13 22 2 62 136 172 174
162 155 150 151 144 139 130 122 120 116 129 245 245 272 303 316 344 20 41 40 32 30 10 351 30 35 48 10 355 21 136 176 131 337 338 347 1 15 11 25 83 149 163
146 144 142 142 142 144 137 133 126 128 180 249 315 330 328 322 316 324 16 39 29 12 352 357 10 19 43 54 9 356 17 36 69 123 328 334 350 346 345 352 21 109 162
114 120 128 135 141 144 138 137 144 153 162 128 340 307 311 313 308 302 303 354 8 1 340 343 1 6 10 35 30 40 72 58 12 92 252 319 332 325 338 347 345 220 156
Height
1528 1528 1529 1529 1529 1529 1529 1529 1529 1529 1528 1528 1529 1528 1528 1528 1528 1528 1528 1528 1528 1528 1528 1527 1527 1527 1527 1526 1526 1526 1525 1525 1525 1524 1524 1523 1523 1522 1521 1521 1519 1518 1517
1528 1529 1529 1529 1529 1529 1529 1529 1529 1529 1529 1529 1529 1529 1529 1528 1528 1528 1528 1528 1528 1527 1527 1527 1527 1527 1527 1527 1526 1526 1526 1525 1525 1525 1524 1524 1523 1523 1522 1521 1520 1519 1518
1529 1529 1530 1530 1529 1530 1530 1529 1529 1529 1529 1529 1529 1529 1528 1528 1528 1528 1528 1528 1527 1527 1527 1527 1527 1527 1527 1526 1526 1526 1526 1526 1525 1525 1524 1524 1524 1523 1522 1521 1520 1519 1518
1530 1530 1530 1530 1530 1530 1530 1530 1530 1529 1529 1529 1529 1529 1528 1528 1528 1528 1527 1527 1527 1526 1526 1526 1526 1526 1526 1526 1526 1526 1526 1526 1525 1525 1525 1524 1524 1523 1523 1522 1521 1520 1519
1531 1531 1531 1531 1531 1531 1531 1530 1530 1530 1529 1529 1529 1529 1528 1528 1528 1527 1527 1526 1526 1526 1526 1525 1525 1525 1525 1525 1525 1526 1526 1526 1525 1525 1525 1525 1524 1524 1523 1522 1521 1520 1519
1531 1532 1532 1532 1532 1531 1531 1531 1530 1530 1529 1529 1529 1528 1528 1528 1528 1527 1527 1526 1525 1525 1525 1525 1524 1524 1524 1524 1525 1525 1525 1525 1525 1525 1525 1525 1524 1524 1523 1522 1521 1521 1520
1533 1533 1533 1533 1533 1532 1532 1531 1531 1531 1530 1530 1529 1529 1528 1528 1528 1527 1526 1526 1525 1524 1524 1524 1523 1523 1523 1523 1523 1524 1524 1525 1525 1524 1524 1524 1524 1524 1523 1523 1522 1521 1520
1534 1534 1534 1534 1534 1533 1533 1532 1532 1532 1531 1531 1530 1529 1529 1528 1528 1527 1527 1526 1525 1524 1523 1523 1522 1522 1522 1522 1522 1523 1523 1524 1524 1524 1524 1524 1524 1524 1524 1523 1522 1522 1521
1535 1535 1535 1535 1535 1535 1534 1534 1533 1533 1532 1532 1531 1530 1530 1529 1528 1528 1527 1526 1525 1524 1523 1522 1521 1521 1521 1521 1521 1522 1522 1523 1523 1523 1523 1524 1524 1524 1524 1523 1523 1522 1522
1536 1536 1536 1536 1536 1536 1535 1535 1534 1534 1533 1533 1532 1531 1530 1529 1529 1528 1527 1526 1525 1524 1523 1522 1521 1520 1520 1520 1520 1521 1521 1521 1522 1522 1523 1523 1523 1524 1524 1523 1523 1523 1523
1537 1537 1537 1537 1537 1537 1536 1536 1536 1535 1534 1533 1533 1532 1531 1530 1529 1528 1527 1526 1525 1524 1523 1522 1521 1520 1520 1519 1520 1520 1520 1520 1521 1522 1522 1522 1523 1523 1523 1523 1523 1523 1523
1537 1537 1538 1538 1538 1538 1537 1537 1536 1536 1535 1534 1533 1532 1531 1530 1529 1528 1527 1526 1525 1524 1523 1522 1521 1520 1519 1519 1519 1519 1519 1520 1521 1521 1521 1522 1522 1523 1523 1523 1523 1523 1523
1537 1538 1538 1538 1538 1538 1538 1538 1537 1536 1536 1535 1534 1532 1531 1530 1529 1528 1527 1526 1525 1524 1523 1522 1521 1520 1519 1519 1518 1519 1519 1519 1520 1520 1521 1521 1522 1522 1523 1523 1523 1524 1524
1538 1538 1538 1539 1539 1539 1539 1538 1538 1537 1536 1535 1534 1533 1532 1530 1529 1528 1527 1526 1525 1523 1522 1521 1520 1519 1519 1518 1518 1518 1518 1518 1519 1519 1520 1521 1521 1522 1522 1523 1523 1524 1524
1538 1539 1539 1540 1540 1540 1539 1539 1538 1537 1537 1536 1535 1533 1532 1530 1529 1528 1527 1526 1524 1523 1522 1520 1519 1519 1518 1517 1517 1517 1517 1518 1518 1519 1520 1520 1521 1522 1522 1522 1523 1524 1524
1539 1540 1540 1540 1541 1540 1540 1539 1539 1538 1537 1536 1535 1534 1532 1531 1530 1528 1527 1526 1524 1523 1522 1520 1519 1518 1517 1516 1516 1516 1516 1517 1517 1518 1519 1520 1520 1521 1521 1522 1523 1524 1524
1539 1540 1541 1541 1541 1541 1540 1540 1539 1539 1538 1537 1535 1534 1533 1531 1530 1528 1527 1525 1524 1523 1521 1520 1519 1518 1516 1516 1516 1516 1516 1516 1516 1517 1518 1519 1520 1520 1521 1522 1522 1523 1524
1540 1540 1541 1541 1542 1541 1541 1541 1540 1539 1538 1537 1536 1535 1533 1532 1530 1529 1527 1526 1524 1523 1521 1520 1518 1517 1516 1515 1515 1515 1515 1515 1516 1516 1517 1518 1519 1520 1521 1521 1522 1523 1524
1539 1540 1541 1542 1542 1542 1542 1541 1541 1540 1539 1538 1537 1535 1533 1532 1530 1529 1527 1526 1525 1523 1521 1520 1519 1517 1516 1515 1515 1514 1514 1515 1515 1516 1517 1517 1518 1519 1520 1521 1522 1523 1524
1539 1541 1541 1542 1543 1542 1542 1542 1541 1541 1540 1539 1537 1536 1534 1533 1531 1530 1528 1527 1525 1524 1522 1520 1519 1518 1516 1515 1515 1514 1514 1514 1515 1515 1516 1517 1518 1518 1519 1520 1521 1522 1523
1540 1541 1542 1542 1543 1543 1542 1542 1542 1541 1541 1540 1538 1537 1535 1534 1532 1531 1529 1527 1526 1524 1523 1521 1519 1518 1517 1516 1515 1515 1515 1515 1515 1515 1516 1517 1517 1518 1519 1520 1521 1522 1523
1539 1541 1542 1542 1543 1543 1543 1543 1542 1542 1541 1540 1539 1538 1536 1535 1533 1531 1530 1529 1527 1525 1523 1522 1520 1519 1518 1517 1516 1515 1515 1517 1515 1516 1516 1516 1517 1518 1518 1519 1520 1521 1522
1539 1540 1541 1542 1543 1543 1543 1543 1543 1542 1542 1541 1540 1539 1537 1536 1534 1533 1531 1530 1528 1526 1524 1523 1522 1520 1519 1518 1517 1517 1517 1516 1516 1517 1516 1516 1517 1517 1518 1519 1519 1521 1522
1539 1540 1541 1542 1543 1543 1543 1543 1543 1543 1542 1541 1541 1539 1538 1537 1535 1534 1532 1530 1529 1527 1526 1524 1523 1522 1521 1519 1519 1518 1518 1518 1517 1517 1517 1517 1517 1517 1518 1518 1519 1520 1521
1539 1540 1541 1542 1543 1543 1544 1544 1543 1543 1542 1542 1541 1540 1539 1538 1536 1535 1533 1531 1530 1528 1527 1525 1524 1523 1522 1521 1520 1519 1519 1518 1518 1518 1517 1517 1517 1517 1517 1518 1519 1520 1521
1538 1540 1541 1542 1542 1543 1543 1543 1543 1543 1543 1542 1541 1540 1539 1538 1537 1535 1534 1532 1531 1529 1528 1526 1525 1524 1523 1522 1521 1520 1519 1519 1518 1518 1517 1517 1516 1517 1517 1517 1518 1519 1520